TimeMST,TemperatureF,Dew PointF,Humidity,Sea Level PressureIn,VisibilityMPH,Wind Direction,Wind SpeedMPH,Gust SpeedMPH,PrecipitationIn,Events,Conditions,WindDirDegrees,DateUTC
12:15 AM,36.5,33.8,90,29.48,10.0,North,11.5,-,N/A,,Overcast,350,2012-12-15 07:15:00
12:35 AM,36.9,34.0,89,29.48,10.0,NNW,11.5,-,N/A,,Overcast,330,2012-12-15 07:35:00
12:55 AM,37.6,34.7,89,29.50,10.0,NNW,11.5,-,N/A,,Overcast,340,2012-12-15 07:55:00
1:15 AM,37.4,34.5,89,29.50,10.0,NNW,5.8,-,N/A,,Overcast,330,2012-12-15 08:15:00
1:35 AM,37.2,34.2,89,29.52,10.0,West,4.6,-,N/A,,Overcast,260,2012-12-15 08:35:00
1:55 AM,36.5,33.8,90,29.52,10.0,West,3.5,-,N/A,,Overcast,270,2012-12-15 08:55:00
2:15 AM,36.5,33.1,87,29.53,10.0,WSW,5.8,-,N/A,,Overcast,240,2012-12-15 09:15:00
2:35 AM,35.8,32.9,89,29.53,10.0,West,4.6,-,N/A,,Overcast,260,2012-12-15 09:35:00
2:55 AM,35.6,32.0,87,29.55,10.0,West,6.9,-,N/A,,Overcast,260,2012-12-15 09:55:00
3:15 AM,35.6,28.8,76,29.55,10.0,WNW,10.4,-,N/A,,Overcast,290,2012-12-15 10:15:00
3:35 AM,36.0,28.4,74,29.55,10.0,NW,19.6,-,N/A,,Overcast,320,2012-12-15 10:35:00
3:55 AM,35.8,28.2,74,29.55,10.0,NW,20.7,27.6,N/A,,Overcast,320,2012-12-15 10:55:00
4:15 AM,36.0,28.0,73,29.56,10.0,NW,19.6,26.5,N/A,,Overcast,320,2012-12-15 11:15:00
4:35 AM,35.6,27.7,73,29.57,10.0,NNW,20.7,-,N/A,,Overcast,330,2012-12-15 11:35:00
4:55 AM,34.9,27.3,74,29.58,10.0,NNW,17.3,-,N/A,,Scattered Clouds,330,2012-12-15 11:55:00
5:15 AM,34.7,26.8,73,29.59,10.0,NW,17.3,-,N/A,,Clear,320,2012-12-15 12:15:00
5:35 AM,34.3,25.5,70,29.61,10.0,NW,17.3,-,N/A,,Clear,320,2012-12-15 12:35:00
5:55 AM,34.7,24.8,67,29.61,10.0,NNW,20.7,26.5,N/A,,Mostly Cloudy,330,2012-12-15 12:55:00
6:15 AM,35.2,24.4,65,29.61,10.0,NNW,23.0,27.6,N/A,,Mostly Cloudy,330,2012-12-15 13:15:00
6:35 AM,35.2,23.7,63,29.62,10.0,NNW,21.9,-,N/A,,Scattered Clouds,330,2012-12-15 13:35:00
7:15 AM,34.0,23.5,66,29.62,10.0,NNW,19.6,-,N/A,,Clear,340,2012-12-15 14:15:00
7:35 AM,33.8,23.5,66,29.64,10.0,NNW,16.1,-,N/A,,Clear,340,2012-12-15 14:35:00
7:55 AM,32.9,23.9,69,29.67,10.0,SW,3.5,-,N/A,,Clear,230,2012-12-15 14:55:00
8:15 AM,33.1,24.3,70,29.66,10.0,NNW,4.6,-,N/A,,Clear,340,2012-12-15 15:15:00
8:35 AM,34.5,24.6,67,29.67,10.0,West,5.8,-,N/A,,Clear,280,2012-12-15 15:35:00
8:55 AM,36.5,25.0,63,29.67,10.0,WNW,5.8,-,N/A,,Clear,300,2012-12-15 15:55:00
9:15 AM,38.3,24.6,58,29.66,10.0,NNW,12.7,18.4,N/A,,Clear,330,2012-12-15 16:15:00
9:35 AM,38.3,24.6,58,29.65,10.0,NNW,21.9,25.3,N/A,,Clear,340,2012-12-15 16:35:00
9:55 AM,39.6,25.7,58,29.67,10.0,NNW,13.8,19.6,N/A,,Clear,340,2012-12-15 16:55:00
10:15 AM,41.4,25.9,54,29.66,10.0,NNW,19.6,-,N/A,,Clear,330,2012-12-15 17:15:00
10:35 AM,42.1,26.1,53,29.66,10.0,NNW,16.1,25.3,N/A,,Clear,340,2012-12-15 17:35:00
10:55 AM,43.9,27.3,52,29.66,10.0,NW,12.7,-,N/A,,Clear,320,2012-12-15 17:55:00
11:15 AM,45.1,27.1,49,29.65,10.0,NW,18.4,-,N/A,,Clear,320,2012-12-15 18:15:00
11:35 AM,45.9,26.8,47,29.66,10.0,NNW,16.1,-,N/A,,Clear,330,2012-12-15 18:35:00
11:55 AM,46.9,26.6,45,29.64,10.0,NNW,15.0,-,N/A,,Clear,340,2012-12-15 18:55:00
12:15 PM,46.4,27.0,47,29.66,10.0,NW,15.0,-,N/A,,Clear,320,2012-12-15 19:15:00
12:35 PM,46.6,27.5,47,29.66,10.0,NW,11.5,16.1,N/A,,Clear,320,2012-12-15 19:35:00
12:55 PM,48.4,26.6,43,29.66,10.0,NW,11.5,-,N/A,,Clear,310,2012-12-15 19:55:00
1:15 PM,47.5,25.7,43,29.66,10.0,NNW,11.5,-,N/A,,Clear,330,2012-12-15 20:15:00
1:35 PM,47.7,25.3,42,29.67,10.0,NNW,16.1,-,N/A,,Clear,330,2012-12-15 20:35:00
1:55 PM,47.3,25.3,42,29.67,10.0,NNW,8.1,-,N/A,,Mostly Cloudy,330,2012-12-15 20:55:00
2:15 PM,46.8,24.3,41,29.68,10.0,NNW,12.7,-,N/A,,Overcast,330,2012-12-15 21:15:00
2:35 PM,46.4,24.8,43,29.68,10.0,NNW,12.7,-,N/A,,Overcast,340,2012-12-15 21:35:00
2:55 PM,45.5,25.7,46,29.68,10.0,NNW,9.2,-,N/A,,Overcast,340,2012-12-15 21:55:00
3:15 PM,45.5,25.5,46,29.70,10.0,NNW,11.5,-,N/A,,Overcast,330,2012-12-15 22:15:00
3:35 PM,44.6,25.0,46,29.71,10.0,NNW,8.1,-,N/A,,Mostly Cloudy,330,2012-12-15 22:35:00
3:55 PM,43.7,25.3,48,29.71,10.0,NNW,8.1,-,N/A,,Mostly Cloudy,340,2012-12-15 22:55:00
4:15 PM,41.9,25.9,53,29.72,10.0,North,5.8,-,N/A,,Scattered Clouds,350,2012-12-15 23:15:00
4:35 PM,40.1,25.5,56,29.72,10.0,North,6.9,-,N/A,,Mostly Cloudy,350,2012-12-15 23:35:00
4:55 PM,38.7,25.3,59,29.72,10.0,North,5.8,-,N/A,,Mostly Cloudy,350,2012-12-15 23:55:00
5:15 PM,35.8,24.8,64,29.73,10.0,NW,5.8,-,N/A,,Scattered Clouds,320,2012-12-16 00:15:00
5:35 PM,36.1,24.8,63,29.73,10.0,NNW,8.1,-,N/A,,Clear,330,2012-12-16 00:35:00
5:55 PM,35.1,24.8,66,29.73,10.0,North,11.5,-,N/A,,Scattered Clouds,360,2012-12-16 00:55:00
6:15 PM,35.4,24.6,65,29.73,10.0,North,9.2,-,N/A,,Scattered Clouds,10,2012-12-16 01:15:00
6:35 PM,32.0,23.9,72,29.74,10.0,North,9.2,-,N/A,,Clear,10,2012-12-16 01:35:00
6:55 PM,31.6,24.1,74,29.74,10.0,North,10.4,-,N/A,,Clear,10,2012-12-16 01:55:00
7:15 PM,32.2,24.6,74,29.73,10.0,North,9.2,-,N/A,,Clear,10,2012-12-16 02:15:00
7:35 PM,32.0,23.9,72,29.73,10.0,North,11.5,-,N/A,,Scattered Clouds,360,2012-12-16 02:35:00
7:55 PM,32.5,24.6,73,29.74,10.0,North,9.2,-,N/A,,Overcast,350,2012-12-16 02:55:00
8:15 PM,32.0,23.9,72,29.74,10.0,NNW,4.6,-,N/A,,Overcast,340,2012-12-16 03:15:00
8:35 PM,32.4,23.7,70,29.73,10.0,North,9.2,-,N/A,,Mostly Cloudy,360,2012-12-16 03:35:00
8:55 PM,32.4,22.6,67,29.73,10.0,Calm,Calm,-,N/A,,Mostly Cloudy,0,2012-12-16 03:55:00
9:15 PM,32.4,21.7,65,29.74,10.0,Calm,Calm,-,N/A,,Overcast,0,2012-12-16 04:15:00
9:35 PM,32.5,20.8,62,29.74,10.0,Calm,Calm,-,N/A,,Overcast,0,2012-12-16 04:35:00
9:55 PM,32.0,21.4,65,29.74,10.0,Calm,Calm,-,N/A,,Overcast,0,2012-12-16 04:55:00
10:15 PM,32.0,21.7,66,29.75,10.0,Calm,Calm,-,N/A,,Overcast,0,2012-12-16 05:15:00
10:35 PM,32.0,21.4,65,29.75,10.0,WNW,5.8,-,N/A,,Overcast,290,2012-12-16 05:35:00
10:55 PM,32.0,21.7,66,29.76,10.0,WSW,4.6,-,N/A,,Overcast,250,2012-12-16 05:55:00
11:15 PM,31.5,23.0,71,29.75,10.0,West,3.5,-,N/A,,Overcast,260,2012-12-16 06:15:00
11:55 PM,32.0,23.9,72,29.75,10.0,West,4.6,-,N/A,,Overcast,260,2012-12-16 06:55:00